TimeEDT,TemperatureF,Dew PointF,Humidity,Sea Level PressureIn,VisibilityMPH,Wind Direction,Wind SpeedMPH,Gust SpeedMPH,PrecipitationIn,Events,Conditions,WindDirDegrees,DateUTC
12:26 AM,39.2,35.6,87,30.33,1.5,Calm,Calm,-,N/A,,Clear,0,2013-09-18 04:26:00
12:36 AM,37.4,35.6,93,30.33,4.0,Calm,Calm,-,N/A,,Clear,0,2013-09-18 04:36:00
12:53 AM,39.9,37.0,89,30.32,10.0,Calm,Calm,-,N/A,,Clear,0,2013-09-18 04:53:00
1:01 AM,39.2,37.4,93,30.33,2.0,Calm,Calm,-,N/A,,Partly Cloudy,0,2013-09-18 05:01:00
1:08 AM,39.2,37.4,93,30.33,1.5,Calm,Calm,-,N/A,,Partly Cloudy,0,2013-09-18 05:08:00
1:11 AM,39.2,37.4,93,30.33,4.0,Calm,Calm,-,N/A,,Partly Cloudy,0,2013-09-18 05:11:00
1:20 AM,39.2,37.4,93,30.32,1.8,Calm,Calm,-,N/A,,Partly Cloudy,0,2013-09-18 05:20:00
1:31 AM,37.4,35.6,93,30.33,3.0,Calm,Calm,-,N/A,,Clear,0,2013-09-18 05:31:00
1:53 AM,39.0,37.0,93,30.32,10.0,Calm,Calm,-,N/A,,Clear,0,2013-09-18 05:53:00
2:19 AM,37.4,37.4,100,30.32,1.8,Calm,Calm,-,N/A,,Partly Cloudy,0,2013-09-18 06:19:00
2:24 AM,37.4,35.6,93,30.31,0.8,Calm,Calm,-,N/A,,Mist,0,2013-09-18 06:24:00
2:30 AM,37.4,35.6,93,30.32,1.5,Calm,Calm,-,N/A,,Partly Cloudy,0,2013-09-18 06:30:00
2:33 AM,37.4,35.6,93,30.32,3.0,Calm,Calm,-,N/A,,Clear,0,2013-09-18 06:33:00
2:51 AM,37.4,35.6,93,30.31,2.5,Calm,Calm,-,N/A,,Partly Cloudy,0,2013-09-18 06:51:00
2:53 AM,37.9,36.0,93,30.31,1.5,Calm,Calm,-,N/A,,Clear,0,2013-09-18 06:53:00
3:10 AM,37.4,35.6,93,30.31,5.0,Calm,Calm,-,N/A,,Clear,0,2013-09-18 07:10:00
3:14 AM,37.4,35.6,93,30.31,1.5,Calm,Calm,-,N/A,,Clear,0,2013-09-18 07:14:00
3:22 AM,37.4,35.6,93,30.31,1.0,Calm,Calm,-,N/A,,Mist,0,2013-09-18 07:22:00
3:26 AM,37.4,35.6,93,30.31,2.5,Calm,Calm,-,N/A,,Clear,0,2013-09-18 07:26:00
3:33 AM,37.4,35.6,93,30.31,6.0,Calm,Calm,-,N/A,,Clear,0,2013-09-18 07:33:00
3:53 AM,37.9,35.1,89,30.31,9.0,Calm,Calm,-,N/A,,Clear,0,2013-09-18 07:53:00
4:41 AM,37.4,35.6,93,30.30,2.5,Calm,Calm,-,N/A,,Partly Cloudy,0,2013-09-18 08:41:00
4:45 AM,37.4,35.6,93,30.30,1.0,Calm,Calm,-,N/A,,Mist,0,2013-09-18 08:45:00
4:53 AM,37.0,35.1,93,30.30,1.0,Calm,Calm,-,N/A,,Mist,0,2013-09-18 08:53:00
4:56 AM,37.4,35.6,93,30.30,2.0,Calm,Calm,-,N/A,,Partly Cloudy,0,2013-09-18 08:56:00
5:04 AM,37.4,35.6,93,30.30,10.0,Calm,Calm,-,N/A,,Partly Cloudy,0,2013-09-18 09:04:00
5:53 AM,36.0,34.0,93,30.31,1.5,Calm,Calm,-,N/A,,Clear,0,2013-09-18 09:53:00
6:02 AM,35.6,33.8,93,30.31,4.0,Calm,Calm,-,N/A,,Clear,0,2013-09-18 10:02:00
6:53 AM,36.0,34.0,93,30.32,10.0,Calm,Calm,-,N/A,,Clear,0,2013-09-18 10:53:00
7:53 AM,44.1,41.0,89,30.31,10.0,Calm,Calm,-,N/A,,Clear,0,2013-09-18 11:53:00
8:53 AM,55.0,46.0,72,30.31,10.0,Calm,Calm,-,N/A,,Clear,0,2013-09-18 12:53:00
9:53 AM,63.0,46.0,54,30.29,10.0,Calm,Calm,-,N/A,,Clear,0,2013-09-18 13:53:00
10:53 AM,66.9,42.1,40,30.28,10.0,West,9.2,-,N/A,,Clear,260,2013-09-18 14:53:00
11:53 AM,69.1,42.1,38,30.26,10.0,Variable,6.9,-,N/A,,Clear,0,2013-09-18 15:53:00
12:53 PM,71.1,39.9,32,30.24,10.0,NW,8.1,-,N/A,,Clear,320,2013-09-18 16:53:00
1:53 PM,72.0,42.1,34,30.21,10.0,West,8.1,-,N/A,,Clear,260,2013-09-18 17:53:00
2:53 PM,73.0,41.0,31,30.19,10.0,Variable,3.5,-,N/A,,Clear,0,2013-09-18 18:53:00
3:53 PM,73.0,39.0,29,30.17,10.0,West,5.8,-,N/A,,Clear,260,2013-09-18 19:53:00
4:53 PM,72.0,39.9,31,30.16,10.0,West,8.1,-,N/A,,Clear,270,2013-09-18 20:53:00
5:53 PM,71.1,42.1,35,30.15,10.0,WSW,6.9,-,N/A,,Clear,250,2013-09-18 21:53:00
6:53 PM,66.0,44.1,45,30.15,10.0,WSW,4.6,-,N/A,,Clear,240,2013-09-18 22:53:00
7:53 PM,55.0,46.9,74,30.16,10.0,Calm,Calm,-,N/A,,Clear,0,2013-09-18 23:53:00
8:53 PM,51.1,46.9,86,30.16,10.0,Calm,Calm,-,N/A,,Clear,0,2013-09-19 00:53:00
9:53 PM,48.0,46.0,93,30.16,10.0,Calm,Calm,-,N/A,,Clear,0,2013-09-19 01:53:00
10:53 PM,55.9,48.9,77,30.16,10.0,WSW,3.5,-,N/A,,Clear,240,2013-09-19 02:53:00
11:53 PM,46.9,45.0,93,30.15,10.0,Calm,Calm,-,N/A,,Clear,0,2013-09-19 03:53:00